User: anonymous   Login
Location: Elk Forest
(39.5314°N, 75.8738°W)
Time: 22:11:27
(UTC-04:00)
Language:

Resurs 01 Rocket - Orbit

View from above orbital plane
View from above orbital plane
View from above satellite
View from above satellite

Ground track
Ground track

The orbit data is extracted from the following two-line orbital elements,

1 23343U 94074B   15123.54811932  .00000273  00000-0  46961-4 0  9996
2 23343 098.2207 138.2065 0007932 046.0172 106.5572 14.76499492102364
Epoch (UTC): 03 May 2015 13:09:17
Eccentricity: 0.0007932
inclination: 98.2207°
perigee height: 635 km
apogee height: 646 km
right ascension of ascending node: 138.2065°
argument of perigee: 46.0172°
revolutions per day: 14.76499492
mean anomaly at epoch: 106.5572°
orbit number at epoch: 10236

The dashed part of the orbit path shows where the satellite is in the earth's shadow,  

DLR